Location: Okie-Tex Star Party
(36.8978°N, 102.9520°W)
Time: 15:05:56
(UTC-05:00)

Amateur Radio Satellites - All Passes

Search period start: 29 August 2014 14:35
Search period end: 30 August 2014 14:35
Location: Okie-Tex Star Party, 36.8978°N, 102.9520°W

Satellite Date Start Highest point End Downlink Frequencies (MHz)
Time Altitude Azimuth
UOSAT-12 29 Aug 14:36:46 14:38:53 13° 42° (NE) 14:41:00 437.025 FM, 437.400 FM
Gurwin Techsat 1B 29 Aug 14:42:14 14:45:37 17° 64° (ENE) 14:49:00 435.225 FM
MaSat-1 29 Aug 14:42:29 14:47:17 87° 293° (WNW) 14:52:28 437.345 MHz
Oscar 19 29 Aug 15:02:00 15:07:04 58° 259° (W) 15:12:11 437.125 CW, 437.150 USB
PANSAT 29 Aug 15:24:18 15:27:25 23° 180° (S) 15:30:31 not established
ITAMSAT 1 29 Aug 15:31:02 15:36:11 70° 258° (WSW) 15:41:21 435.822 SSB
TMSAT-1 29 Aug 15:32:59 15:37:48 38° 70° (ENE) 15:42:39 436.925 FM
RS-15 29 Aug 15:35:14 15:42:35 19° 25° (NNE) 15:50:01 29.354 - 29.394 USB, Beacon 29.352 USB
JAS-1B 29 Aug 15:37:04 15:46:59 81° 256° (WSW) 15:56:06 435.800 - 435.900 CW/SSB
Oscar 16 29 Aug 15:37:44 15:41:55 25° 265° (W) 15:46:09 437.025 USB, Beacon 2401.1428
AO-Echo 29 Aug 15:40:49 15:45:45 49° 260° (W) 15:50:33 ?
Uribyol 2 29 Aug 15:41:34 15:46:34 52° 260° (W) 15:51:36 436.500 FM
Oscar 10/S400 29 Aug 15:42:58 15:57:17 16° 151° (SSE) 16:08:13 145.825 - 145.975 CW/USB, Beacon 145.810 USB
AO-7 29 Aug 15:48:25 15:54:41 25° 57° (ENE) 16:00:56 29.400 - 29.500 MHz
SO-50 29 Aug 15:49:43 15:52:01 13° 252° (WSW) 15:54:21 436.795 FM
AO-27 29 Aug 16:00:16 16:04:59 35° 262° (W) 16:09:43 436.795 MHz FM
UOSAT-12 29 Aug 16:14:57 16:19:41 87° 241° (WSW) 16:24:20 437.025 FM, 437.400 FM
Gurwin Techsat 1B 29 Aug 16:19:54 16:25:05 55° 260° (W) 16:30:19 435.225 FM
MaSat-1 29 Aug 16:23:10 16:25:08 12° 312° (NW) 16:27:07 437.345 MHz
Uosat F 29 Aug 16:30:54 16:34:57 25° 67° (ENE) 16:39:00 435.120 FM
PANSAT 29 Aug 17:04:32 17:07:03 17° 193° (SSW) 17:09:34 not established
TMSAT-1 29 Aug 17:13:36 17:17:47 24° 265° (W) 17:22:00 436.925 FM
JAS-1B 29 Aug 17:32:39 17:38:15 17° 271° (W) 17:43:40 435.800 - 435.900 CW/SSB
AO-7 29 Aug 17:38:21 17:46:40 73° 255° (WSW) 17:55:01 29.400 - 29.500 MHz
JAS-2 29 Aug 17:38:32 17:41:36 14° 64° (ENE) 17:44:32 435.800 - 435.900 CW/SSB, 435.910 FM
RS-15 29 Aug 17:47:04 17:58:00 59° 54° (NE) 18:09:19 29.354 - 29.394 USB, Beacon 29.352 USB
Sapphire 29 Aug 17:47:22 17:52:23 41° 110° (ESE) 17:57:27 437.095 MHz 1200 baud AX-25 AFSK
OPAL 29 Aug 17:49:25 17:54:10 34° 100° (E) 17:58:52 ?
Uosat F 29 Aug 18:09:04 18:13:33 33° 262° (W) 18:18:04 435.120 FM
PCSat 29 Aug 18:16:31 18:21:55 84° 115° (ESE) 18:27:22 145.825 MHz
ISS 29 Aug 18:27:36 18:30:43 36° 35° (NE) 18:33:50 145.800 FM
Hamsat 29 Aug 18:29:33 18:33:25 33° 72° (ENE) 18:37:20 145.90 MHz
JAS-2 29 Aug 19:19:48 19:26:12 75° 257° (WSW) 19:31:54 435.800 - 435.900 CW/SSB, 435.910 FM
OPAL 29 Aug 19:28:32 19:32:51 27° 295° (WNW) 19:37:09 ?
Sapphire 29 Aug 19:31:27 19:35:56 26° 307° (NW) 19:40:26 437.095 MHz 1200 baud AX-25 AFSK
STRAND 1 29 Aug 19:32:22 19:35:21 16° 93° (E) 19:38:20 ?
AO-7 29 Aug 19:38:36 19:40:39 11° 271° (W) 19:42:42 29.400 - 29.500 MHz
RS-15 29 Aug 20:00:01 20:09:52 38° 253° (WSW) 20:20:07 29.354 - 29.394 USB, Beacon 29.352 USB
PCSat 29 Aug 20:03:03 20:06:01 15° 314° (NW) 20:09:00 145.825 MHz
ISS 29 Aug 20:04:46 20:07:17 20° 230° (SW) 20:09:47 145.800 FM
Hamsat 29 Aug 20:06:28 20:09:27 18° 267° (W) 20:12:27 145.90 MHz
SO-67 29 Aug 20:12:57 20:16:24 75° 77° (ENE) 20:19:52 435.3500 MHz FM
HO-68 29 Aug 20:40:53 20:46:02 22° 60° (ENE) 20:51:11 435.675 MHz FM
STRAND 1 29 Aug 21:09:52 21:14:49 54° 287° (WNW) 21:19:46 ?
UKube-1 29 Aug 21:47:05 21:50:39 26° 69° (ENE) 21:54:15 145.840 MHz, 145.915 MHz
Oscar 11 29 Aug 21:54:58 21:57:59 19° 68° (ENE) 22:01:01 145.825 FM, Beacon 2401.500 USB
FUNcube-1 29 Aug 22:19:08 22:20:48 12° 65° (ENE) 22:22:28 145.950 - 145.970 MHz USB
HO-68 29 Aug 22:25:59 22:33:04 68° 257° (WSW) 22:40:12 435.675 MHz FM
Saudisat 1A 29 Aug 22:45:18 22:47:35 14° 108° (ESE) 22:49:52 436.775 MHz
MaSat-1 29 Aug 23:04:23 23:06:33 13° 49° (NE) 23:08:36 437.345 MHz
UKube-1 29 Aug 23:23:13 23:26:46 24° 264° (W) 23:30:20 145.840 MHz, 145.915 MHz
Oscar 11 29 Aug 23:29:58 23:33:54 34° 263° (W) 23:37:52 145.825 FM, Beacon 2401.500 USB
KITSAT 1 29 Aug 23:31:26 23:37:45 26° 105° (ESE) 23:44:04 435.175 FM
FUNcube-1 29 Aug 23:52:40 23:56:42 50° 260° (W) 00:00:50 145.950 - 145.970 MHz USB
Saudisat 1A 30 Aug 00:22:25 00:26:42 51° 304° (WNW) 00:31:01 436.775 MHz
MaSat-1 30 Aug 00:39:44 00:44:10 60° 250° (WSW) 00:47:57 437.345 MHz
KITSAT 1 30 Aug 01:24:30 01:32:30 64° 302° (WNW) 01:40:33 435.175 FM
Oscar 16 30 Aug 02:13:18 02:16:05 14° 92° (E) 02:18:51 437.025 USB, Beacon 2401.1428
Sapphire 30 Aug 02:37:57 02:42:10 23° 51° (NE) 02:46:22 437.095 MHz 1200 baud AX-25 AFSK
AO-40 30 Aug 03:05:19 04:13:21 16° 237° (WSW) 06:00:57 Beacon 2401.320
PCSat 30 Aug 03:06:57 03:12:05 41° 57° (ENE) 03:17:10 145.825 MHz
Oscar 19 30 Aug 03:15:52 03:21:02 61° 101° (E) 03:26:09 437.125 CW, 437.150 USB
KITSAT 1 30 Aug 03:25:04 03:29:39 16° 325° (NW) 03:34:16 435.175 FM
JAS-1B 30 Aug 03:28:32 03:34:15 31° 94° (E) 03:39:21 435.800 - 435.900 CW/SSB
ITAMSAT 1 30 Aug 03:46:18 03:51:21 50° 100° (E) 03:56:22 435.822 SSB
AO-Echo 30 Aug 03:50:14 03:54:53 62° 101° (E) 03:59:33 ?
Oscar 16 30 Aug 03:50:40 03:55:47 59° 287° (WNW) 04:00:52 437.025 USB, Beacon 2401.1428
TMSAT-1 30 Aug 03:52:00 03:55:32 18° 93° (E) 03:59:03 436.925 FM
Uribyol 2 30 Aug 03:56:24 04:01:35 68° 102° (ESE) 04:06:45 436.500 FM
AO-27 30 Aug 04:15:02 04:20:14 83° 285° (WNW) 04:25:25 436.795 MHz FM
SO-50 30 Aug 04:20:31 04:24:30 33° 113° (ESE) 04:28:34 436.795 FM
Sapphire 30 Aug 04:20:37 04:25:51 50° 248° (WSW) 04:31:03 437.095 MHz 1200 baud AX-25 AFSK
Oscar 10/S400 30 Aug 04:27:18 05:44:27 38° 238° (WSW) 10:22:43 145.825 - 145.975 CW/USB, Beacon 145.810 USB
Gurwin Techsat 1B 30 Aug 04:38:20 04:43:39 73° 102° (ESE) 04:48:56 435.225 FM
PCSat 30 Aug 04:50:54 04:55:13 25° 253° (WSW) 04:59:31 145.825 MHz
Oscar 19 30 Aug 04:56:52 04:59:49 15° 297° (WNW) 05:02:46 437.125 CW, 437.150 USB
OPAL 30 Aug 05:02:05 05:06:54 47° 70° (ENE) 05:11:48 ?
JAS-1B 30 Aug 05:18:58 05:24:57 35° 295° (WNW) 05:30:13 435.800 - 435.900 CW/SSB
ITAMSAT 1 30 Aug 05:26:57 05:30:25 18° 295° (WNW) 05:33:53 435.822 SSB
TMSAT-1 30 Aug 05:30:36 05:35:42 50° 288° (WNW) 05:40:46 436.925 FM
AO-Echo 30 Aug 05:31:12 05:33:07 12° 297° (WNW) 05:35:02 ?
Uribyol 2 30 Aug 05:37:53 05:40:27 14° 298° (WNW) 05:43:01 436.500 FM
AO-7 30 Aug 05:42:45 05:50:37 45° 101° (E) 05:58:25 29.400 - 29.500 MHz
SO-50 30 Aug 06:01:25 06:05:05 24° 310° (NW) 06:08:50 436.795 FM
Uosat F 30 Aug 06:18:24 06:23:26 90° 85° (E) 06:28:26 435.120 FM
Gurwin Techsat 1B 30 Aug 06:20:28 06:22:57 14° 298° (WNW) 06:25:26 435.225 FM
UOSAT-12 30 Aug 06:23:53 06:28:17 48° 115° (ESE) 06:32:47 437.025 FM, 437.400 FM
JAS-2 30 Aug 06:33:21 06:35:26 12° 92° (E) 06:37:34 435.800 - 435.900 CW/SSB, 435.910 FM
OPAL 30 Aug 06:42:37 06:46:00 18° 265° (W) 06:49:25 ?
STRAND 1 30 Aug 06:46:13 06:49:44 19° 65° (ENE) 06:53:15 ?
KITSAT 1 30 Aug 07:27:44 07:30:10 11° 28° (NNE) 07:32:35 435.175 FM
AO-7 30 Aug 07:35:47 07:43:11 38° 298° (WNW) 07:50:35 29.400 - 29.500 MHz
Hamsat 30 Aug 07:52:56 07:57:19 85° 283° (WNW) 08:01:37 145.90 MHz
UOSAT-12 30 Aug 08:05:19 08:08:41 20° 313° (NW) 08:12:07 437.025 FM, 437.400 FM
RS-15 30 Aug 08:08:03 08:18:22 45° 109° (ESE) 08:28:26 29.354 - 29.394 USB, Beacon 29.352 USB
JAS-2 30 Aug 08:15:41 08:20:54 69° 285° (WNW) 08:26:33 435.800 - 435.900 CW/SSB, 435.910 FM
STRAND 1 30 Aug 08:23:39 08:28:32 46° 260° (W) 08:33:27 ?
Saudisat 1A 30 Aug 08:51:08 08:55:32 63° 58° (ENE) 08:59:53 436.775 MHz
SO-67 30 Aug 09:11:51 09:15:17 62° 283° (WNW) 09:18:41 435.3500 MHz FM
KITSAT 1 30 Aug 09:20:22 09:28:01 44° 53° (NE) 09:35:37 435.175 FM
HO-68 30 Aug 09:56:57 10:02:46 26° 95° (E) 10:08:34 435.675 MHz FM
RS-15 30 Aug 10:19:56 10:30:32 49° 310° (NW) 10:41:03 29.354 - 29.394 USB, Beacon 29.352 USB
Saudisat 1A 30 Aug 10:33:14 10:34:32 11° 253° (WSW) 10:35:49 436.775 MHz
ISS 30 Aug 11:08:28 11:11:35 39° 134° (SE) 11:14:43 145.800 FM
UKube-1 30 Aug 11:12:47 11:17:06 65° 102° (ESE) 11:21:24 145.840 MHz, 145.915 MHz
KITSAT 1 30 Aug 11:15:57 11:23:17 40° 252° (WSW) 11:30:35 435.175 FM
Oscar 11 30 Aug 11:19:28 11:23:43 49° 100° (E) 11:27:56 145.825 FM, Beacon 2401.500 USB
FUNcube-1 30 Aug 11:43:48 11:48:00 36° 98° (E) 11:52:13 145.950 - 145.970 MHz USB
HO-68 30 Aug 11:43:49 11:50:42 53° 291° (WNW) 11:57:36 435.675 MHz FM
RS-15 30 Aug 12:39:58 12:46:31 17° 340° (NNW) 12:53:05 29.354 - 29.394 USB, Beacon 29.352 USB
ISS 30 Aug 12:45:44 12:48:25 22° 330° (NNW) 12:51:06 145.800 FM
UKube-1 30 Aug 12:51:53 12:52:44 11° 297° (WNW) 12:53:34 145.840 MHz, 145.915 MHz
SO-50 30 Aug 12:54:21 12:57:55 20° 48° (NE) 13:01:30 436.795 FM
Oscar 11 30 Aug 12:57:17 12:59:27 14° 295° (WNW) 13:01:37 145.825 FM, Beacon 2401.500 USB
PANSAT 30 Aug 13:20:02 13:22:41 18° 168° (SSE) 13:25:20 not established
FUNcube-1 30 Aug 13:20:51 13:24:07 20° 292° (WNW) 13:27:25 145.950 - 145.970 MHz USB
Oscar 16 30 Aug 13:28:07 13:31:30 18° 64° (ENE) 13:34:54 437.025 USB, Beacon 2401.1428
AO-27 30 Aug 13:54:44 13:57:13 14° 62° (ENE) 13:59:42 436.795 MHz FM
JAS-1B 30 Aug 14:07:55 14:16:09 33° 64° (ENE) 14:23:41 435.800 - 435.900 CW/SSB
Gurwin Techsat 1B 30 Aug 14:22:18 14:23:18 11° 60° (ENE) 14:24:17 435.225 FM
MaSat-1 30 Aug 14:24:12 14:29:01 86° 113° (ESE) 14:34:11 437.345 MHz
